Starlink 30161

operational
NORAD ID: 57476 Int'l Des: 2023-107 Owner: SPXS Country: US Constellation: starlink
LEOCIRCULAR

Starlink 30161について

説明を読み込み中...

リアルタイム位置

3D地球を読み込み中...

次回通過

高度履歴

Altitude vs Time

uPlot chart will show altitude changes over time

軌道要素

1 57476U 23107V 25352.61867956 .00001325 00000-0 11313-3 0 9990
2 57476 43.0049 59.0162 0001897 260.3329 99.7299 15.02544818132924
Epoch: Dec 18, 2025 • Age: 17 hours

現在のステータス

高度 567.7 km
速度 7.58 km/s
衛星直下点 -34.58°S, 76.58°E
打ち上げ日 Jul 28, 2023
運用期間 2.3 years
タイプ internet

技術仕様

分類 Payload
質量 730.00 kg
乾燥質量 700.00 kg
総質量 730.00 kg
長さ 0.30 m
直径 4.10 m
スパン 29.00 m
形状 Box + pan
製造者 SPXS
バスタイプ Starlink V2M
フェーズステータス In Orbit
所有者/国 SPXS/US

大規模コンステレーション

Loading constellations...